Location: Unspecified
(0.0000°N, 0.0000°E)
Time: 13:31:03
(UTC+00:00)

N. Korean satellite - Pass Details

Date: 25 November 2021
Orbit: 446 x 495 km, 97.3° (Epoch: 07 December)

Event Time Altitude Azimuth Distance (km) Brightness Sun altitude
Rises 04:38:03 0° 19° (NNE) 2,429 10.1 -16.1°
Reaches altitude 10° 04:40:06 10° 25° (NNE) 1,561 9.2 -15.6°
Maximum altitude 04:43:21 49° 101° (E) 579 7.4 -14.8°
Drops below altitude 10° 04:46:37 10° 177° (S) 1,575 9.5 -14.1°
Sets 04:48:42 0° 183° (S) 2,453 10.4 -13.6°
